• en France
  • Liste des pays
  • À 7 jours
  • Température de l'eau
  • Carte satellitaire
  • Carte météo
  • Widgets météo
  • user-avatar
    Se connecter

    Météo par heure à Hoeryŏng

    Ce jour, 20 Août, Lundi

    Heure Température Précipitation Vent Pression Humidité
    00:00 +27°C° 0 mm 1 m/s 751 mmHg 69%
    01:00 +26°C° 0 mm 1 m/s 751 mmHg 71%
    02:00 +26°C° 0 mm 1 m/s 751 mmHg 74%
    03:00 +25°C° 0 mm 1 m/s 750 mmHg 75%
    04:00 +25°C° 0 mm 1 m/s 750 mmHg 76%
    05:00 +25°C° 0 mm 1 m/s 750 mmHg 77%
    06:00 +26°C° 0 mm 2 m/s 750 mmHg 72%
    07:00 +28°C° 0 mm 2 m/s 750 mmHg 67%
    08:00 +29°C° 0 mm 2 m/s 750 mmHg 61%
    09:00 +31°C° 0 mm 2 m/s 750 mmHg 57%
    10:00 +33°C° 0 mm 3 m/s 749 mmHg 54%
    11:00 +34°C° 0 mm 3 m/s 749 mmHg 50%
    12:00 +35°C° 0 mm 3 m/s 748 mmHg 50%
    13:00 +35°C° 0 mm 4 m/s 748 mmHg 49%
    14:00 +34°C° 0 mm 2 m/s 747 mmHg 52%
    15:00 +34°C° 0 mm 2 m/s 747 mmHg 55%
    16:00 +32°C° 0 mm 2 m/s 747 mmHg 58%
    17:00 +31°C° 0 mm 3 m/s 747 mmHg 61%
    18:00 +30°C° 0,2 mm 3 m/s 747 mmHg 64%
    19:00 +30°C° 0,2 mm 3 m/s 747 mmHg 67%
    20:00 +29°C° 0,2 mm 3 m/s 746 mmHg 71%
    21:00 +28°C° 0,3 mm 4 m/s 746 mmHg 74%
    22:00 +28°C° 0,3 mm 4 m/s 746 mmHg 78%
    23:00 +28°C° 0,3 mm 4 m/s 746 mmHg 81%

    Demain, 21 Août, Mardi

    Heure Température Précipitation Vent Pression Humidité
    00:00 +27°C° 0,6 mm 5 m/s 746 mmHg 82%
    01:00 +27°C° 0,6 mm 5 m/s 745 mmHg 83%
    02:00 +27°C° 0,6 mm 6 m/s 745 mmHg 85%
    03:00 +27°C° 1,3 mm 5 m/s 745 mmHg 86%
    04:00 +27°C° 1,3 mm 5 m/s 745 mmHg 87%
    05:00 +26°C° 1,3 mm 5 m/s 745 mmHg 88%
    06:00 +27°C° 0,6 mm 4 m/s 745 mmHg 88%
    07:00 +27°C° 0,6 mm 4 m/s 745 mmHg 88%
    08:00 +27°C° 0,6 mm 4 m/s 745 mmHg 88%
    09:00 +27°C° 0,2 mm 4 m/s 745 mmHg 87%
    10:00 +28°C° 0,2 mm 4 m/s 745 mmHg 85%
    11:00 +28°C° 0,2 mm 3 m/s 746 mmHg 83%
    12:00 +29°C° 0,1 mm 3 m/s 746 mmHg 80%
    13:00 +30°C° 0,1 mm 3 m/s 746 mmHg 77%
    14:00 +31°C° 0,1 mm 3 m/s 746 mmHg 73%
    15:00 +31°C° 0 mm 3 m/s 746 mmHg 74%
    16:00 +30°C° 0 mm 3 m/s 746 mmHg 74%
    17:00 +30°C° 0 mm 2 m/s 746 mmHg 74%
    18:00 +29°C° 0 mm 2 m/s 746 mmHg 78%
    19:00 +28°C° 0 mm 1 m/s 747 mmHg 82%
    20:00 +25°C° 0 mm 0 m/s 747 mmHg 85%
    21:00 +25°C° 0 mm 0 m/s 748 mmHg 86%
    22:00 +24°C° 0 mm 0 m/s 748 mmHg 87%
    23:00 +24°C° 0 mm 0 m/s 748 mmHg 88%

    Après-demain, 22 Août, Mercredi

    Heure Température Précipitation Vent Pression Humidité
    00:00 +24°C° 0 mm 0 m/s 748 mmHg 88%
    01:00 +24°C° 0 mm 0 m/s 748 mmHg 89%
    02:00 +25°C° 0 mm 1 m/s 748 mmHg 89%
    03:00 +25°C° 0 mm 1 m/s 748 mmHg 90%
    04:00 +25°C° 0 mm 1 m/s 748 mmHg 90%
    05:00 +25°C° 0 mm 1 m/s 748 mmHg 91%
    06:00 +27°C° 0 mm 1 m/s 748 mmHg 85%
    07:00 +28°C° 0 mm 1 m/s 748 mmHg 80%
    08:00 +30°C° 0 mm 1 m/s 748 mmHg 75%
    09:00 +32°C° 0 mm 1 m/s 748 mmHg 68%
    10:00 +34°C° 0 mm 1 m/s 748 mmHg 61%
    11:00 +35°C° 0 mm 1 m/s 748 mmHg 54%
    12:00 +36°C° 0 mm 1 m/s 747 mmHg 52%
    13:00 +37°C° 0 mm 2 m/s 747 mmHg 50%
    14:00 +38°C° 0 mm 2 m/s 746 mmHg 48%
    15:00 +37°C° 0,2 mm 2 m/s 746 mmHg 54%
    16:00 +36°C° 0,2 mm 2 m/s 746 mmHg 60%
    17:00 +35°C° 0,2 mm 2 m/s 745 mmHg 65%
    18:00 +32°C° 1 mm 2 m/s 746 mmHg 69%
    19:00 +31°C° 1 mm 2 m/s 746 mmHg 73%
    20:00 +30°C° 1 mm 2 m/s 746 mmHg 77%
    21:00 +30°C° 1,4 mm 3 m/s 747 mmHg 79%
    22:00 +29°C° 1,4 mm 3 m/s 747 mmHg 80%
    23:00 +29°C° 1,4 mm 3 m/s 747 mmHg 82%

    23 Août, Jeudi

    Heure Température Précipitation Vent Pression Humidité
    00:00 +28°C° 0,2 mm 3 m/s 746 mmHg 83%
    01:00 +28°C° 0,2 mm 3 m/s 746 mmHg 84%
    02:00 +27°C° 0,2 mm 3 m/s 746 mmHg 85%
    03:00 +27°C° 0,6 mm 3 m/s 745 mmHg 85%
    04:00 +27°C° 0,6 mm 3 m/s 745 mmHg 86%
    05:00 +27°C° 0,6 mm 3 m/s 745 mmHg 86%
    06:00 +28°C° 0,8 mm 3 m/s 745 mmHg 85%
    07:00 +28°C° 0,8 mm 4 m/s 745 mmHg 84%
    08:00 +29°C° 0,8 mm 4 m/s 745 mmHg 83%
    09:00 +30°C° 0,3 mm 4 m/s 745 mmHg 79%
    10:00 +32°C° 0,3 mm 4 m/s 744 mmHg 75%
    11:00 +33°C° 0,3 mm 5 m/s 744 mmHg 71%
    12:00 +33°C° 0,7 mm 5 m/s 743 mmHg 71%
    13:00 +33°C° 0,7 mm 5 m/s 743 mmHg 70%
    14:00 +33°C° 0,7 mm 6 m/s 742 mmHg 70%
    15:00 +32°C° 0,3 mm 6 m/s 741 mmHg 70%
    16:00 +32°C° 0,3 mm 6 m/s 740 mmHg 71%
    17:00 +30°C° 0,3 mm 7 m/s 739 mmHg 71%
    18:00 +30°C° 0,2 mm 7 m/s 738 mmHg 73%
    19:00 +30°C° 0,2 mm 7 m/s 737 mmHg 74%
    20:00 +29°C° 0,2 mm 7 m/s 737 mmHg 76%
    21:00 +29°C° 0,7 mm 8 m/s 735 mmHg 77%
    22:00 +29°C° 0,7 mm 8 m/s 734 mmHg 78%
    23:00 +29°C° 0,7 mm 8 m/s 732 mmHg 79%

    24 Août, Vendredi

    Heure Température Précipitation Vent Pression Humidité
    00:00 +28°C° 6,7 mm 10 m/s 731 mmHg 81%
    01:00 +28°C° 6,7 mm 11 m/s 729 mmHg 82%
    02:00 +28°C° 6,7 mm 12 m/s 728 mmHg 84%
    03:00 +28°C° 17,2 mm 12 m/s 727 mmHg 86%
    04:00 +27°C° 17,2 mm 13 m/s 726 mmHg 88%
    05:00 +27°C° 17,2 mm 13 m/s 726 mmHg 91%
    06:00 +27°C° 7,1 mm 12 m/s 727 mmHg 89%
    07:00 +27°C° 7,1 mm 12 m/s 727 mmHg 88%
    08:00 +27°C° 7,1 mm 11 m/s 728 mmHg 86%
    09:00 +27°C° 0,4 mm 11 m/s 730 mmHg 86%
    10:00 +26°C° 0,4 mm 10 m/s 731 mmHg 86%
    11:00 +24°C° 0,4 mm 10 m/s 732 mmHg 86%
    12:00 +26°C° 0,2 mm 9 m/s 733 mmHg 86%
    13:00 +26°C° 0,2 mm 7 m/s 734 mmHg 86%
    14:00 +26°C° 0,2 mm 6 m/s 735 mmHg 86%
    15:00 +26°C° 0,4 mm 6 m/s 736 mmHg 85%
    16:00 +26°C° 0,4 mm 6 m/s 737 mmHg 85%
    17:00 +26°C° 0,4 mm 6 m/s 738 mmHg 85%
    18:00 +26°C° 0 mm 6 m/s 739 mmHg 85%
    19:00 +26°C° 0 mm 5 m/s 740 mmHg 85%
    20:00 +25°C° 0 mm 5 m/s 740 mmHg 85%
    21:00 +25°C° 0,1 mm 5 m/s 741 mmHg 85%
    22:00 +25°C° 0,1 mm 5 m/s 741 mmHg 85%
    23:00 +25°C° 0,1 mm 5 m/s 742 mmHg 85%

    25 Août, Samedi

    Heure Température Précipitation Vent Pression Humidité
    00:00 +25°C° 0,2 mm 5 m/s 742 mmHg 85%
    01:00 +25°C° 0,2 mm 5 m/s 742 mmHg 86%
    02:00 +25°C° 0,2 mm 5 m/s 742 mmHg 86%
    03:00 +25°C° 0,2 mm 4 m/s 743 mmHg 86%
    04:00 +23°C° 0,2 mm 4 m/s 743 mmHg 85%
    05:00 +23°C° 0,2 mm 4 m/s 744 mmHg 85%
    06:00 +23°C° 0,1 mm 4 m/s 744 mmHg 82%
    07:00 +25°C° 0,1 mm 4 m/s 745 mmHg 80%
    08:00 +25°C° 0,1 mm 3 m/s 745 mmHg 77%
    09:00 +26°C° 0 mm 4 m/s 746 mmHg 72%
    10:00 +27°C° 0 mm 4 m/s 746 mmHg 66%
    11:00 +29°C° 0 mm 5 m/s 746 mmHg 61%
    12:00 +29°C° 0 mm 5 m/s 746 mmHg 59%
    13:00 +29°C° 0 mm 5 m/s 746 mmHg 58%
    14:00 +30°C° 0 mm 5 m/s 746 mmHg 56%
    15:00 +29°C° 0 mm 5 m/s 746 mmHg 60%
    16:00 +28°C° 0 mm 4 m/s 746 mmHg 63%
    17:00 +28°C° 0 mm 4 m/s 746 mmHg 66%
    18:00 +26°C° 0 mm 3 m/s 747 mmHg 70%
    19:00 +25°C° 0 mm 3 m/s 747 mmHg 73%
    20:00 +24°C° 0 mm 3 m/s 748 mmHg 77%
    21:00 +24°C° 0 mm 2 m/s 748 mmHg 78%
    22:00 +24°C° 0 mm 2 m/s 748 mmHg 79%
    23:00 +23°C° 0 mm 2 m/s 748 mmHg 80%
    Voir plus